This demonstration page uses our WeatherBlox Daily Observations layout. Learn more.

Left ArrowRight Arrow

Hourly Observations for July 7, 2016

Temp ( °F °C ) Dew Point ( °F °C ) Humidity (%) Winds ( mph kmh ) Pressure ( in mb ) Visibility ( mi km ) Precip ( " mm )
12:53 am 00:53 Clear 72 22.2 69 20.6 91 91 Calm 30.04 1017 10 16 0.00 0.00
1:53 am 01:53 Clear 72 22.2 69 20.6 91 91 Calm 30.01 1016 10 16 0.00 0.00
2:53 am 02:53 Clear 71 21.7 69 20.6 94 94 SSW 3 6 30.00 1016 10 16 0.00 0.00
3:12 am 03:12 Partly Cloudy 72 22 70 21 94 94 S 3 6 30.00 1016 10 16 0.00 0.00
3:22 am 03:22 Mostly Cloudy 72 22 70 21 94 94 SSW 5 7 30.00 1016 10 16 0.00 0.00
3:53 am 03:53 Cloudy 72 22.2 69 20.6 91 91 WSW 7 11 30.00 1016 10 16 0.00 0.00
4:21 am 04:21 Cloudy 72 22.2 69 20.6 91 91 SW 5 7 30.00 1016 10 16 0.00 0.00
4:34 am 04:34 Cloudy 72 22 70 21 94 94 SSW 7 11 30.00 1016 10 16 0.00 0.00
4:53 am 04:53 Partly Cloudy 72 22.2 69 20.6 91 91 SSW 5 7 30.01 1016 10 16 0.00 0.00
5:53 am 05:53 Partly Cloudy 72 22.2 69 20.6 91 91 SSW 6 9 30.02 1017 10 16 0.00 0.00
6:15 am 06:15 Mostly Cloudy 72 22.2 69 20.6 91 91 SW 7 11 30.03 1017 10 16 0.00 0.00
6:53 am 06:53 Cloudy 72 22 70 21 94 94 SW 3 6 30.03 1017 7 11 0.00 0.00
7:23 am 07:23 Cloudy 73 22.8 70 21.1 90 90 WSW 7 11 30.03 1017 10 16 0.00 0.00
7:30 am 07:30 Cloudy 73 23 70 21 89 89 WSW 3 6 30.06 1018 9 14 0.00 0.00
7:53 am 07:53 Cloudy 73 22.8 70 21.1 90 90 SW 6 9 30.05 1018 7 11 0.00 0.00
8:36 am 08:36 Cloudy 75 23.9 71 21.7 88 88 SW 6 9 30.06 1018 10 16 0.00 0.00
8:53 am 08:53 Cloudy 76 24.4 71 21.7 85 85 SW 7 11 30.06 1018 10 16 0.00 0.00
9:41 am 09:41 Partly Cloudy 80 26.7 73 22.8 79 79 WSW 7 11 30.06 1018 10 16 0.00 0.00
9:48 am 09:48 Mostly Cloudy 81 27 73 23 79 79 WSW 7 11 30.06 1018 10 16 0.00 0.00
9:53 am 09:53 Mostly Cloudy 81 27.2 73 22.8 77 77 WSW 10 17 30.06 1018 10 16 0.00 0.00
10:53 am 10:53 Mostly Cloudy 84 28.9 73 22.8 70 70 W 10 17 30.06 1018 10 16 0.00 0.00
11:05 am 11:05 Mostly Cloudy 84 28.9 73 22.8 70 70 WSW 10 17 30.06 1018 10 16 0.00 0.00
11:53 am 11:53 Mostly Cloudy 85 29.4 72 22.2 65 65 W 9 15 30.03 1017 10 16 0.00 0.00
12:53 pm 12:53 Mostly Sunny 89 31.7 71 21.7 55 55 WSW 13 20 30.02 1017 10 16 0.00 0.00
1:53 pm 13:53 Partly Cloudy 90 32.2 69 20.6 50 50 SW 14 22 30.01 1016 10 16 0.00 0.00
2:53 pm 14:53 Partly Cloudy 92 33.3 69 20.6 47 47 W 12 19 30.00 1016 10 16 0.00 0.00
3:53 pm 15:53 Mostly Cloudy 91 32.8 68 20 47 47 SW 10 17 29.99 1016 10 16 0.00 0.00
4:53 pm 16:53 Sunny 93 33.9 66 18.9 41 41 W 12 19 29.98 1015 10 16 0.00 0.00
5:53 pm 17:53 Mostly Sunny 93 33.9 65 18.3 40 40 WSW 12 19 29.97 1015 10 16 0.00 0.00
6:53 pm 18:53 Partly Cloudy 93 33.9 64 17.8 38 38 W 13 20 29.98 1015 10 16 0.00 0.00
7:53 pm 19:53 Sunny 90 32.2 66 18.9 45 45 WNW 9 15 29.98 1015 10 16 0.00 0.00
8:53 pm 20:53 Clear 88 31.1 66 18.9 48 48 WSW 3 6 29.98 1015 10 16 0.00 0.00
9:53 pm 21:53 Clear 85 29.4 67 19.4 55 55 SSW 5 7 29.97 1015 10 16 0.00 0.00
10:53 pm 22:53 Clear 82 27.8 68 20 63 63 Calm 29.98 1015 10 16 0.00 0.00
11:53 pm 23:53 Clear 81 27.2 69 20.6 67 67 Calm 30.00 1016 10 16 0.00 0.00

Powered by AerisWeather